Flag for Nepal Weather past 2 weeks in Kathmandu, Nepal

Now
73 °F

Thunderstorms. Passing clouds.


Feels Like: 72 °F
Forecast: 60 / 86 °F
Wind: No wind

Location: Kathmandu Airport

Current Time: Sep 17, 2014 at 10:17:09 PM

Latest Report: Sep 17, 2014 at 9:35 PM


Visibility: 5 mi

Pressure: 29.89 "Hg

Humidity: 89%

Dew point: 70 °F

Location of KathmanduLocation

Historic Weather in Kathmandu — Graph

°F

Kathmandu temperature yesterday

Maximum temperature yesterday: 81 °F (at 11:35 AM)
Minimum temperature yesterday: 68 °F (at 2:35 AM)
Average temperature yesterday: 74 °F

Past Weeks' High & Low Weather Summary

 TemperatureHumidityPressure
High84 °F (Sep 3, 1:35 PM)100% (Sep 5, 2:35 AM)30.04 "Hg (Sep 5, 2:35 AM)
Low66 °F (Sep 10, 3:35 AM)55% (Sep 5, 2:35 PM)29.77 "Hg (Sep 5, 2:35 PM)
Average73 °F84%29.92 "Hg
* Reported Sep 2 8:35 PM — Sep 17 8:35 PM, Kathmandu, Weather by CustomWeather, © 2014

Note: Actual official high and low records may vary slightly from our data, if they occured in-between our weather recording intervals... More about our weather records

Advertising

Kathmandu weather history for previous 24 hours

 ConditionsComfort  
Time TempWeatherWind HumidityBarometerVisibility
8:35 PM
Sep 17
73 °FThunderstorms. Passing clouds.7 mph83%29.89 "Hg5 mi
6:35 PM75 °FScattered clouds.7 mph83%29.83 "HgN/A
5:35 PM77 °FScattered clouds.7 mph79%29.80 "HgN/A
4:35 PM79 °FScattered clouds.7 mph70%29.80 "HgN/A
3:35 PM81 °FScattered clouds.9 mph62%29.77 "HgN/A
2:35 PM82 °FScattered clouds.9 mph62%29.80 "HgN/A
1:35 PM82 °FScattered clouds.9 mph62%29.80 "HgN/A
12:35 PM82 °FScattered clouds.No wind58%29.83 "HgN/A
11:35 AM82 °FScattered clouds.No wind58%29.86 "HgN/A
10:35 AM81 °FScattered clouds.3 mph66%29.86 "Hg5 mi
8:35 AM75 °FScattered clouds.No wind69%29.89 "Hg4 mi
7:35 AM70 °FBroken clouds.No wind94%29.86 "Hg4 mi
5:35 AM68 °FPartly cloudy.No wind94%29.86 "Hg4 mi
4:35 AM68 °FPassing clouds.No wind94%29.83 "Hg4 mi
3:35 AM68 °FPassing clouds.No wind94%29.83 "Hg4 mi
12:35 AM68 °FPartly cloudy.No wind94%29.86 "Hg4 mi
11:35 PM
Sep 16
70 °FPartly cloudy.No wind88%29.89 "Hg4 mi
10:35 PM70 °FPartly cloudy.No wind88%29.89 "Hg4 mi
Weather by CustomWeather, © 2014

See weather overviewHow to use our weather pages